Weather History for KRDD - September, 2012

Change the Weather History Date:

Monday, September 3, 2012

  Actual Average Record
Temperature  
Mean Temperature 77 °F -  
Max Temperature 96 °F 93 °F 116 °F (1988)
Min Temperature 57 °F 60 °F 52 °F (1989)
Degree Days  
Heating Degree Days 0    
Month to date heating degree days 0  
Cooling Degree Days 12    
Month to date cooling degree days 28  
Year to date cooling degree days 1532  
Growing Degree Days 26 (Base 50)    
Moisture  
Dew Point 44 °F    
Average Humidity 43    
Maximum Humidity 72    
Minimum Humidity 14    
Precipitation  
Precipitation 0.00 in 0.02 in 0.09 in (2000)
Month to date precipitation 0.00 0.04  
Year to date precipitation 17.29 21.17  
Since 1 July precipitation T 0.31  
Sea Level Pressure  
Sea Level Pressure 29.90 in    
Wind  
Wind Speed 2 mph (SSE)    
Max Wind Speed 13 mph    
Max Gust Speed 17 mph    
Visibility 7 miles    
Events      
T = Trace of Precipitation, MM = Missing Value Source: NWS Daily Summary

Daily Weather History Graph

Daily Weather History Graph

Search for Another Location

Airport or City:

Trip Planner

Search our weather history database for the weather conditions in past years. The results will help you decide how hot, cold, wet, or windy it might be!

Date:

Astronomy

Sep. 03, 2012 Rise Set
Actual Time 6:38 AM PDT 7:36 PM PDT
Civil Twilight 6:11 AM PDT 8:04 PM PDT
Nautical Twilight 5:37 AM PDT 8:37 PM PDT
Astronomical Twilight 5:03 AM PDT 9:12 PM PDT
Moon 8:58 PM PDT (9/3) 9:53 AM PDT (9/3)
Length of Visible Light 13h 53m
Length of Day
12h 58m
Waning Gibbous, 90% of the Moon is Illuminated
Sep 3
Waning Gibbous
Sep 8
Last Quarter
Sep 15
New
Sep 22
First Quarter
Sep 29
Full

Hourly Weather History & Observations

Time (PDT) Temp. Dew Point Humidity Pressure Visibility Wind Dir Wind Speed Gust Speed Precip Events Conditions
12:53 AM 64.9 °F 48.9 °F 56% 29.91 in 9.0 mi NNW 3.5 mph - N/A   Haze
1:53 AM 64.0 °F 48.0 °F 56% 29.91 in 9.0 mi Calm Calm - N/A   Haze
2:53 AM 63.0 °F 48.9 °F 60% 29.91 in 9.0 mi Calm Calm - N/A   Haze
3:53 AM 62.1 °F 48.0 °F 60% 29.91 in 9.0 mi Calm Calm - N/A   Haze
4:53 AM 62.1 °F 46.9 °F 58% 29.91 in 9.0 mi Calm Calm - N/A   Haze
5:53 AM 59.0 °F 46.9 °F 64% 29.92 in 9.0 mi Calm Calm - N/A   Haze
6:53 AM 57.9 °F 48.0 °F 70% 29.93 in 8.0 mi Calm Calm - N/A   Smoke
7:53 AM 61.0 °F 48.9 °F 64% 29.94 in 7.0 mi Calm Calm - N/A   Smoke
8:53 AM 68.0 °F 48.0 °F 49% 29.94 in 6.0 mi Calm Calm - N/A   Haze
9:33 AM 73.4 °F 46.4 °F 38% 29.96 in 2.0 mi Calm Calm - N/A   Haze
9:53 AM 75.9 °F 46.9 °F 36% 29.94 in 2.0 mi Calm Calm - N/A   Haze
10:53 AM 81.0 °F 44.1 °F 27% 29.94 in 1.2 mi Calm Calm - N/A   Haze
11:43 AM 84.2 °F 41.0 °F 22% 29.94 in 1.8 mi South 3.5 mph - N/A   Haze
11:51 AM 84.2 °F 39.2 °F 20% 29.94 in 2.0 mi Calm Calm - N/A   Haze
11:53 AM 84.9 °F 39.9 °F 20% 29.92 in 2.0 mi SSE 3.5 mph - N/A   Haze
12:53 PM 89.1 °F 42.1 °F 19% 29.91 in 2.5 mi SSE 4.6 mph - N/A   Haze
1:19 PM 91.4 °F 39.2 °F 16% 29.92 in 3.0 mi Variable 3.5 mph - N/A   Haze
1:53 PM 91.0 °F 42.1 °F 18% 29.89 in 3.0 mi South 5.8 mph - N/A   Haze
2:53 PM 93.9 °F 41.0 °F 16% 29.87 in 6.0 mi South 10.4 mph - N/A   Haze
3:53 PM 95.0 °F 39.0 °F 14% 29.86 in 6.0 mi SSE 9.2 mph - N/A   Haze
4:53 PM 95.0 °F 39.0 °F 14% 29.84 in 10.0 mi South 8.1 mph - N/A   Smoke
5:53 PM 93.9 °F 37.0 °F 14% 29.83 in 10.0 mi SSW 6.9 mph - N/A   Smoke
6:53 PM 91.0 °F 41.0 °F 17% 29.83 in 10.0 mi SE 6.9 mph - N/A   Smoke
7:53 PM 82.9 °F 46.9 °F 28% 29.84 in 10.0 mi SSE 5.8 mph - N/A   Smoke
8:53 PM 79.0 °F 44.1 °F 29% 29.87 in 10.0 mi SSE 3.5 mph - N/A   Smoke
9:53 PM 73.9 °F 45.0 °F 35% 29.90 in 10.0 mi Calm Calm - N/A   Smoke
10:53 PM 71.1 °F 45.0 °F 39% 29.91 in 10.0 mi NNE 4.6 mph - N/A   Smoke
11:53 PM 68.0 °F 45.0 °F 43% 29.92 in 10.0 mi Calm Calm - N/A   Smoke